COSMOS 1691 DEB, 18565

Orbit data source: Space-Track

COSMOS 1691 DEB, 18565 is space debris in LEO originally from a launch on Wed, 09 Oct 1985 UTC launched from the Plesetsk Missile And Space Complex (PKMTR). Debris objects in space refer to the collection of defunct objects orbiting the Earth. Examples of debris include non-operational satellites, rocket bodies, and fragments generated from explosions, collisions, or faulty payload assembly.

Loading next visibility...
Identifier
18565, 1985-094U
Orbit
LEO
Country
Flag of CISCIS
Related business
Manufacturer
Unknown
Mission
Spacecraft
Bus & Motor
Unknown
Mass
Unknown
Launch date (UTC)
1985-10-09 (41 years ago)
Launch vehicle
Unknown
Launch site
Plesetsk Missile And Space Complex (PKMTR)
Object type
Payload
Rocket body
Debris
Shape & HBR
Unknown shape, 0.1 m
Radar Cross Section
Medium (>0.1 m² and <1 m²)

Expand to show TLE details & history
Last TLE update: 2 weeks ago

TLE from 2 weeks ago
0 COSMOS 1691 DEB
1 18565U 85094U   26156.40447884  .00004762  00000-0  54399-2 0  9991
2 18565  82.4901 140.4831 0111898 149.6899 341.1921 13.67005132689569
Epoch: 2026-06-05T09:42Z
TLE epoch observation values (Epoch: 2026-06-05T09:42:26.971Z)
Latitude
49.06147°
Longitude
-87.65974°
Altitude
939.878 km
Speed
7.426 km/s
True Right ascension
20h 47m 09s
True Declination
48° 53' 43"
Sunlit
Object was in daylight at epoch
Visualization orbit readout
Latitude
Unknown
Longitude
Unknown
Altitude
Unknown
Speed
Unknown
Apparent Right ascension
Unknown
Apparent Declination
Unknown
Sunlit
N/A
Visualization observer readout
Local Sidereal Time
00:50:10
Azimuth
Unknown
Elevation
Unknown
Doppler factor
Unknown
Orbital elements
Apogee altitude
1,090.164 km
Perigee altitude
924.876 km
Semi-major axis
7,385.657 km
Eccentricity
0.01119
Inclination
82.4901°
RAAN
140.4831°
Arg. of periapsis
149.6899°
True anomaly
340.77317°
Mean anomaly
341.1921°
Eccentric anomaly
340.98319°
Mean motion
3.41948 °/min
Orbital period
105.28 mins
BSTAR
0.0054399
Loading maneuver chart data...
Computing Atmospheric mass density...
Loading historical data...
Loading historical data...
Loading historical data...
Loading historical data...
Loading historical data...
Loading historical data...
Loading historical data...

Documentation

Showing up to 5 results
|